Weather History for Weaverville, CA

Change the Weather History Date:

Saturday, October 20, 2012

  Actual Average (KRDD) Record (KRDD)
Temperature  
Mean Temperature 52 °F -  
Max Temperature 64 °F 76 °F 96 °F (1988)
Min Temperature 41 °F 48 °F 40 °F (1996)
Degree Days  
Heating Degree Days 12    
Cooling Degree Days 0    
Growing Degree Days 2 (Base 50)    
Moisture  
Dew Point 40 °F    
Average Humidity 57    
Maximum Humidity 81    
Minimum Humidity 34    
Precipitation  
Precipitation 0.00 in 0.08 in 0.93 in (1992)
Month to date precipitation 1.04  
Year to date precipitation 22.81  
Since 1 July precipitation 1.95  
Sea Level Pressure  
Sea Level Pressure 29.90 in    
Wind  
Wind Speed 7 mph (SW)    
Max Wind Speed 15 mph    
Max Gust Speed 25 mph    
Visibility 10 miles    
Events      
T = Trace of Precipitation, MM = Missing Value Source: NWS Daily Summary

Daily Weather History Graph

Daily Weather History Graph

Search for Another Location

Airport:

Trip Planner

Search our weather history database for the weather conditions in past years. The results will help you decide how hot, cold, wet, or windy it might be!

Date:

Astronomy

Oct. 20, 2012 Rise Set
Actual Time 7:29 AM PDT 6:23 PM PDT
Civil Twilight 7:01 AM PDT 6:50 PM PDT
Nautical Twilight 6:29 AM PDT 7:22 PM PDT
Astronomical Twilight 5:57 AM PDT 7:54 PM PDT
Moon 1:10 PM PDT (10/20) 11:14 PM PDT (10/20)
Length of Visible Light 11h 49m
Length of Day
10h 54m
Waxing Crescent, 35% of the Moon is Illuminated
Oct 20
Waxing Crescent
Oct 21
First Quarter
Oct 29
Full
Nov 6
Last Quarter
Nov 13
New

Hourly Weather History & Observations

Time (PDT) Temp. Windchill Dew Point Humidity Pressure Visibility Wind Dir Wind Speed Gust Speed Precip Events Conditions
12:15 AM 62.6 °F - 48.2 °F 59% 29.96 in 10.0 mi SSW 8.1 mph - N/A   Unknown
12:35 AM 62.6 °F - 48.2 °F 59% 29.96 in 10.0 mi SSW 8.1 mph - N/A   Unknown
12:55 AM 60.8 °F - 50.0 °F 68% 29.96 in 10.0 mi SW 6.9 mph - N/A   Unknown
1:35 AM 59.0 °F - 50.0 °F 72% 29.96 in 10.0 mi SW 6.9 mph - N/A   Unknown
1:55 AM 59.0 °F - 50.0 °F 72% 29.97 in 10.0 mi SSW 8.1 mph - N/A   Unknown
2:15 AM 59.0 °F - 48.2 °F 67% 29.97 in 10.0 mi SSW 6.9 mph - N/A   Unknown
2:35 AM 59.0 °F - 48.2 °F 67% 29.95 in 10.0 mi South 6.9 mph - N/A   Unknown
2:55 AM 57.2 °F - 48.2 °F 72% 29.95 in 10.0 mi SSW 6.9 mph - N/A   Unknown
3:15 AM 57.2 °F - 48.2 °F 72% 29.95 in 10.0 mi South 6.9 mph - N/A   Unknown
3:35 AM 57.2 °F - 46.4 °F 67% 29.95 in 10.0 mi South 6.9 mph - N/A   Unknown
3:55 AM 57.2 °F - 46.4 °F 67% 29.94 in 10.0 mi South 4.6 mph - N/A   Unknown
4:15 AM 57.2 °F - 46.4 °F 67% 29.94 in 10.0 mi South 6.9 mph - N/A   Unknown
4:35 AM 55.4 °F - 44.6 °F 67% 29.93 in 10.0 mi South 6.9 mph 16.1 mph N/A   Unknown
4:55 AM 55.4 °F - 44.6 °F 67% 29.93 in 10.0 mi South 4.6 mph - N/A   Unknown
5:15 AM 55.4 °F - 44.6 °F 67% 29.93 in 10.0 mi South 3.5 mph - N/A   Unknown
5:35 AM 55.4 °F - 44.6 °F 67% 29.94 in 10.0 mi SSW 5.8 mph - N/A   Unknown
5:55 AM 55.4 °F - 44.6 °F 67% 29.93 in 10.0 mi SSW 5.8 mph - N/A   Unknown
6:15 AM 55.4 °F - 44.6 °F 67% 29.93 in 10.0 mi South 4.6 mph - N/A   Unknown
6:35 AM 53.6 °F - 44.6 °F 72% 29.93 in 10.0 mi SSE 4.6 mph - N/A   Unknown
6:55 AM 53.6 °F - 44.6 °F 72% 29.93 in 10.0 mi South 5.8 mph - N/A   Unknown
7:15 AM 53.6 °F - 42.8 °F 67% 29.93 in 10.0 mi SSW 6.9 mph - N/A   Unknown
7:35 AM 53.6 °F - 42.8 °F 67% 29.94 in 10.0 mi NW 3.5 mph - N/A   Unknown
7:55 AM 48.2 °F - 41.0 °F 76% 29.94 in 10.0 mi NNE 4.6 mph - N/A   Unknown
8:15 AM 46.4 °F - 41.0 °F 81% 29.94 in 10.0 mi Calm Calm - N/A   Unknown
8:35 AM 51.8 °F - 41.0 °F 67% 29.94 in 10.0 mi SSW 6.9 mph - N/A   Unknown
9:15 AM 55.4 °F - 42.8 °F 63% 29.93 in 10.0 mi SW 5.8 mph - N/A   Unknown
9:55 AM 57.2 °F - 41.0 °F 55% 29.93 in 10.0 mi SSW 12.7 mph 20.7 mph N/A   Unknown
10:15 AM 57.2 °F - 41.0 °F 55% 29.94 in 10.0 mi SSW 11.5 mph 19.6 mph N/A   Unknown
10:35 AM 57.2 °F - 41.0 °F 55% 29.94 in 10.0 mi SSW 9.2 mph 25.3 mph N/A   Unknown
10:55 AM 59.0 °F - 41.0 °F 51% 29.93 in 10.0 mi SW 11.5 mph 21.9 mph N/A   Unknown
11:15 AM 59.0 °F - 39.2 °F 48% 29.92 in 10.0 mi SW 11.5 mph 16.1 mph N/A   Unknown
11:35 AM 60.8 °F - 39.2 °F 45% 29.92 in 10.0 mi WSW 9.2 mph - N/A   Unknown
11:55 AM 60.8 °F - 39.2 °F 45% 29.92 in 10.0 mi SW 9.2 mph - N/A   Unknown
12:15 PM 62.6 °F - 39.2 °F 42% 29.91 in 10.0 mi SW 6.9 mph 18.4 mph N/A   Unknown
12:35 PM 62.6 °F - 37.4 °F 39% 29.91 in 10.0 mi SW 10.4 mph 23.0 mph N/A   Unknown
12:55 PM 62.6 °F - 37.4 °F 39% 29.89 in 10.0 mi SW 10.4 mph 18.4 mph N/A   Unknown
1:15 PM 62.6 °F - 37.4 °F 39% 29.89 in 10.0 mi WSW 15.0 mph 24.2 mph N/A   Unknown
1:35 PM 64.4 °F - 37.4 °F 37% 29.87 in 10.0 mi SSW 13.8 mph 21.9 mph N/A   Unknown
1:55 PM 64.4 °F - 37.4 °F 37% 29.86 in 10.0 mi SSW 11.5 mph 18.4 mph N/A   Unknown
2:15 PM 64.4 °F - 35.6 °F 34% 29.85 in 10.0 mi SSW 12.7 mph 21.9 mph N/A   Unknown
2:35 PM 64.4 °F - 35.6 °F 34% 29.85 in 10.0 mi WSW 6.9 mph 19.6 mph N/A   Unknown
2:55 PM 64.4 °F - 35.6 °F 34% 29.85 in 10.0 mi WSW 9.2 mph 18.4 mph N/A   Unknown
3:15 PM 64.4 °F - 35.6 °F 34% 29.84 in 10.0 mi WNW 9.2 mph - N/A   Unknown
3:35 PM 62.6 °F - 35.6 °F 37% 29.85 in 10.0 mi West 9.2 mph - N/A   Unknown
3:55 PM 62.6 °F - 35.6 °F 37% 29.84 in 10.0 mi WSW 6.9 mph - N/A   Unknown
4:15 PM 62.6 °F - 35.6 °F 37% 29.85 in 10.0 mi WSW 9.2 mph 21.9 mph N/A   Unknown
4:35 PM 62.6 °F - 35.6 °F 37% 29.84 in 10.0 mi SW 10.4 mph - N/A   Unknown
4:55 PM 62.6 °F - 35.6 °F 37% 29.84 in 10.0 mi WSW 10.4 mph - N/A   Unknown
5:15 PM 60.8 °F - 35.6 °F 39% 29.85 in 10.0 mi West 8.1 mph - N/A   Unknown
5:35 PM 59.0 °F - 35.6 °F 42% 29.84 in 10.0 mi WSW 8.1 mph - N/A   Unknown
5:55 PM 57.2 °F - 35.6 °F 44% 29.84 in 10.0 mi SSW 8.1 mph - N/A   Unknown
6:15 PM 57.2 °F - 35.6 °F 44% 29.84 in 10.0 mi SW 8.1 mph - N/A   Unknown
6:35 PM 55.4 °F - 35.6 °F 47% 29.85 in 10.0 mi SW 8.1 mph 17.3 mph N/A   Unknown
6:55 PM 55.4 °F - 37.4 °F 51% 29.85 in 10.0 mi SSW 10.4 mph - N/A   Unknown
7:15 PM 53.6 °F - 35.6 °F 51% 29.86 in 10.0 mi SW 10.4 mph - N/A   Unknown
7:35 PM 53.6 °F - 35.6 °F 51% 29.86 in 10.0 mi West 6.9 mph - N/A   Unknown
7:55 PM 53.6 °F - 35.6 °F 51% 29.86 in 10.0 mi SSW 4.6 mph - N/A   Unknown
8:15 PM 51.8 °F - 35.6 °F 54% 29.87 in 10.0 mi SSW 3.5 mph - N/A   Unknown
8:35 PM 50.0 °F - 35.6 °F 58% 29.87 in 10.0 mi SW 6.9 mph 16.1 mph N/A   Unknown
8:55 PM 50.0 °F - 35.6 °F 58% 29.88 in 10.0 mi SSW 6.9 mph - N/A   Unknown
9:15 PM 46.4 °F 45.2 °F 35.6 °F 66% 29.87 in 10.0 mi NNE 3.5 mph - N/A   Unknown
9:35 PM 44.6 °F 43.1 °F 33.8 °F 66% 29.88 in 10.0 mi NNE 3.5 mph - N/A   Unknown
9:55 PM 41.0 °F 39.0 °F 33.8 °F 76% 29.89 in 10.0 mi NNE 3.5 mph - N/A   Unknown
10:15 PM 41.0 °F 39.0 °F 33.8 °F 76% 29.90 in 10.0 mi NNE 3.5 mph - N/A   Unknown
10:35 PM 41.0 °F 39.0 °F 32.0 °F 70% 29.90 in 10.0 mi NNE 3.5 mph - N/A   Unknown
10:55 PM 41.0 °F 39.0 °F 33.8 °F 76% 29.90 in 10.0 mi NNE 3.5 mph - N/A   Unknown
11:15 PM 41.0 °F - 33.8 °F 76% 29.89 in 10.0 mi Calm Calm - N/A   Unknown
11:35 PM 46.4 °F 43.5 °F 35.6 °F 66% 29.89 in 10.0 mi SW 5.8 mph - N/A   Unknown
11:55 PM 46.4 °F - 35.6 °F 66% 29.89 in 10.0 mi Calm Calm - N/A   Unknown